Wind_Speed
12 12 12 12 11 11 12 12 11 12 13 13 13 13 11 9 8 7 6 6 5 3 5 5 4 3 3 2 4 8 6 9 23 28 21 17 23 15 7 5 4 3 4 2 3 5 4 4 3 4 5 2 1 1 1 2 1 2 1 3 3 3 3 2 2 2 3 8 7 8 8 6 5 5 3 2 3 5 5 4 5 6 8 10 5 9 10 12
12 12 12 11 10 10 11 11 11 11 12 13 13 12 10 9 8 8 7 6 5 1 4 4 2 3 4 5 8 11 8 4 20 23 15 21 19 8 3 3 3 4 2 2 6 8 3 2 1 5 4 1 1 1 2 2 3 1 2 3 3 3 2 4 5 3 2 8 8 8 7 5 4 6 4 2 5 6 7 6 6 7 8 12 10 11 12 12
12 12 11 11 10 10 10 10 11 11 12 12 12 12 10 9 8 7 7 6 5 1 3 3 3 5 8 11 13 13 10 5 13 14 14 21 13 3 1 1 1 1 2 5 7 10 8 3 4 6 1 2 2 2 2 3 3 2 2 3 3 3 4 5 5 5 3 10 9 7 6 4 3 3 3 3 5 6 8 6 7 10 9 10 13 15 15 15
12 11 10 10 9 8 8 9 10 10 11 12 11 12 10 9 8 7 7 6 5 2 4 5 5 6 9 11 12 9 7 3 5 10 19 20 11 5 1 1 2 2 3 4 6 8 8 7 8 6 0 3 2 3 5 4 3 3 3 4 3 4 5 4 4 6 4 8 7 7 5 3 3 3 3 4 5 6 8 9 9 11 11 11 12 18 20 18
11 10 9 9 8 8 7 7 8 9 10 11 11 11 10 10 9 9 9 7 5 3 3 3 3 4 6 9 7 3 3 1 4 14 21 18 11 6 2 1 2 2 3 3 6 8 7 7 6 4 2 3 2 2 3 3 2 4 4 5 3 3 4 3 3 5 5 5 6 6 4 1 2 3 5 6 6 6 4 5 7 7 8 10 13 19 20 19
10 10 9 8 7 7 7 6 7 8 8 10 11 11 11 10 10 10 12 10 4 3 2 2 1 3 6 10 9 4 1 1 7 17 21 17 11 6 2 0 1 2 4 5 8 8 5 5 3 3 3 4 4 4 2 1 1 3 3 4 6 5 5 4 3 4 5 4 6 3 1 1 1 4 6 9 12 9 3 3 3 0 1 2 10 18 17 17
9 9 9 8 7 6 6 6 6 7 7 8 9 11 11 10 11 11 14 13 5 1 2 3 3 4 7 6 10 10 5 4 12 18 19 17 10 6 1 2 1 2 4 6 8 5 3 4 2 3 3 3 3 4 4 3 4 4 4 4 6 7 6 4 3 3 5 3 2 1 2 1 5 5 3 10 15 12 11 8 4 2 0 3 3 10 15 18
8 8 8 8 7 6 5 5 6 6 7 8 8 10 10 10 10 10 13 15 10 3 2 3 6 7 8 5 3 7 6 5 15 18 17 16 10 6 1 2 2 3 4 5 7 6 4 4 2 2 1 2 2 2 3 4 7 6 4 4 4 5 5 5 4 2 4 3 3 2 3 5 7 4 5 13 14 10 13 13 10 7 5 3 4 5 11 16
7 7 7 7 7 6 5 5 5 6 7 7 8 9 9 10 9 9 12 13 13 7 2 3 4 6 6 5 3 3 4 8 14 15 16 16 14 9 3 1 2 3 3 3 7 7 3 3 4 2 4 3 2 3 5 3 3 3 5 5 5 5 4 4 3 3 1 0 1 2 5 7 4 2 8 16 16 12 11 10 10 8 7 7 6 7 8 10
7 6 6 7 7 7 6 5 5 6 7 6 7 8 8 9 8 9 11 11 12 11 3 1 3 4 5 6 2 3 4 9 11 14 15 16 15 12 8 5 4 4 3 4 8 8 5 5 5 4 6 4 4 4 6 3 3 5 7 6 6 5 4 1 1 4 1 2 2 3 6 7 2 3 7 10 8 9 11 10 10 9 9 9 7 8 11 12
6 6 6 6 7 7 7 6 5 6 7 7 6 7 7 8 8 8 10 9 9 10 7 8 9 8 8 5 3 3 4 8 11 15 14 14 16 15 12 9 7 6 5 7 9 8 7 7 6 3 2 3 4 5 4 4 6 7 8 6 5 4 4 2 2 4 3 2 4 5 7 8 3 3 12 9 1 4 8 9 9 9 8 8 8 8 11 14
6 6 6 6 6 6 7 6 6 6 7 8 6 6 7 8 8 7 8 7 8 7 3 4 7 8 14 13 5 2 5 7 10 14 12 10 13 16 15 11 8 6 5 6 8 8 7 4 3 3 2 3 2 2 2 3 5 6 5 3 4 3 3 4 2 3 2 1 3 4 6 6 7 10 18 11 4 5 6 7 8 9 8 7 8 8 9 14
7 6 6 6 6 6 7 6 6 7 8 8 6 6 6 7 8 8 8 6 7 7 1 1 3 1 6 7 3 3 5 8 11 11 9 8 9 12 16 14 11 9 7 9 9 9 7 4 4 5 4 3 2 2 3 3 2 4 4 1 3 3 2 4 2 3 2 1 3 1 4 4 7 15 17 7 8 7 6 7 7 8 7 7 8 7 8 13
8 7 7 7 7 7 6 6 5 7 9 8 7 6 5 7 8 9 9 6 4 5 5 5 6 6 7 3 1 4 5 8 11 11 10 10 7 8 13 14 14 14 13 14 12 9 7 7 10 7 3 4 3 3 4 2 1 2 0 1 2 1 1 3 2 2 1 0 2 0 2 7 7 11 11 6 9 8 7 8 8 7 7 7 8 8 8 11
8 8 8 8 8 7 6 5 5 7 8 7 7 7 5 6 8 9 8 5 3 5 5 5 4 6 6 2 1 4 6 6 9 12 12 12 9 7 8 10 11 12 13 13 11 9 7 5 6 4 3 4 3 3 3 3 3 2 2 1 1 1 1 2 1 1 0 1 3 1 2 7 10 6 4 7 7 8 8 8 8 8 9 8 8 8 7 8
8 9 9 9 8 7 7 5 5 6 7 5 5 6 5 6 7 6 7 5 3 2 3 5 4 5 4 1 1 2 6 5 8 11 10 12 11 8 9 6 4 6 7 8 9 7 7 6 3 1 2 1 1 1 1 1 1 2 1 1 1 3 1 2 1 1 0 2 3 5 4 7 7 3 4 6 7 8 8 8 9 9 9 9 7 8 7 7
8 8 10 10 8 7 7 6 5 6 5 3 3 5 6 8 8 6 4 5 5 3 3 5 4 5 4 1 1 1 4 4 8 10 8 12 11 8 9 4 2 3 3 5 4 2 4 4 1 1 1 2 3 3 1 1 2 1 1 2 1 1 2 1 1 1 1 1 4 5 6 11 12 8 6 7 8 9 9 9 9 8 8 8 7 7 7 8
8 8 9 10 8 7 7 6 6 6 4 4 4 3 4 7 10 9 4 2 3 3 4 5 4 3 2 2 0 2 5 7 8 9 9 12 10 7 7 3 3 5 3 2 2 2 4 1 0 2 3 5 6 4 3 2 3 4 4 4 3 3 3 2 0 1 1 3 5 5 8 15 16 13 12 10 9 10 11 9 8 8 8 7 7 7 7 8
8 8 9 10 8 7 7 7 7 7 5 4 6 7 6 5 4 8 12 8 3 0 1 4 4 1 0 1 1 5 6 7 7 8 10 12 10 7 5 3 3 4 1 0 3 4 3 2 2 4 4 5 5 5 3 1 3 5 5 3 5 6 3 1 2 2 1 3 6 7 10 14 15 13 12 10 9 11 11 9 7 7 7 7 7 7 7 8
8 8 8 9 8 7 6 6 7 7 6 5 7 8 5 3 2 2 12 12 4 0 1 2 2 1 1 2 5 8 6 4 4 6 13 15 11 6 3 2 2 3 4 1 2 2 1 5 4 2 3 3 3 3 3 4 5 5 5 4 6 6 3 1 3 2 1 2 6 7 9 13 15 15 13 11 7 10 9 8 7 7 7 7 7 7 8 8
8 8 8 8 7 6 6 5 6 6 5 6 7 6 2 2 2 1 3 4 1 1 1 1 2 0 1 2 6 8 3 1 1 6 15 13 6 3 1 1 1 4 3 1 3 2 2 4 3 1 2 3 4 3 4 4 4 4 4 5 5 4 4 2 3 2 2 1 6 7 10 14 14 14 12 7 4 6 8 8 8 8 7 7 7 8 7 6
9 7 8 8 6 6 6 5 6 6 5 5 5 4 2 1 1 4 3 1 1 1 1 1 1 0 1 1 6 7 1 0 2 6 17 14 3 1 2 3 5 2 2 2 1 2 5 3 1 2 2 4 4 4 4 3 3 4 3 4 5 3 4 3 3 3 3 2 5 7 10 14 14 12 10 2 3 3 3 4 4 5 6 6 7 8 8 6
9 8 8 8 6 6 6 5 6 5 4 5 5 5 3 2 5 5 2 2 1 2 1 2 2 2 2 1 6 7 1 1 1 4 17 15 3 1 2 4 5 3 3 6 1 3 2 1 2 3 3 4 3 3 4 4 2 2 3 2 4 4 4 2 0 3 5 2 4 8 9 10 10 7 4 0 2 0 1 1 2 2 4 5 3 3 5 7
10 8 8 7 6 6 6 5 5 5 4 5 6 4 2 4 6 3 1 1 0 1 1 1 1 2 1 1 5 5 2 2 0 4 14 12 2 1 2 2 4 4 4 5 4 6 3 1 2 3 2 3 3 1 3 4 1 2 3 2 2 3 3 3 5 9 9 3 3 7 7 5 5 5 3 2 1 2 2 2 3 4 5 4 4 4 3 5
10 9 8 7 6 6 5 5 4 4 4 4 4 2 3 5 3 1 1 1 1 1 1 1 1 0 0 2 5 2 2 2 1 3 9 8 2 1 1 1 2 2 3 2 5 6 3 1 2 2 2 2 3 1 3 3 3 2 2 2 2 3 4 6 8 9 6 3 4 3 4 4 5 7 4 2 2 3 2 3 4 5 4 4 5 6 5 6
10 9 8 7 6 5 5 3 3 4 3 2 2 1 3 3 1 3 1 1 2 1 0 0 1 0 1 3 4 1 2 1 1 2 5 6 2 1 2 1 2 2 1 1 4 2 2 0 1 2 2 2 1 1 1 1 2 1 2 2 3 3 5 6 6 6 3 3 5 4 3 3 6 7 5 0 4 4 2 1 2 5 5 5 6 6 6 6
9 9 8 7 5 4 3 3 5 5 2 2 2 2 2 2 2 3 2 1 3 2 2 0 0 1 1 2 4 1 1 1 1 2 4 4 3 0 2 1 1 2 0 1 1 1 1 1 1 2 2 2 1 1 1 1 2 1 3 1 3 4 4 5 5 4 3 3 5 4 3 1 5 7 6 1 3 5 6 6 4 3 3 2 1 3 4 6
9 9 8 7 5 4 4 4 7 6 3 6 3 4 3 3 3 3 2 1 2 1 2 0 0 2 1 2 2 1 1 1 1 1 2 4 4 1 2 1 2 3 1 1 1 2 1 1 2 1 1 1 2 2 0 1 1 1 2 1 2 3 3 4 3 5 4 2 3 5 4 1 5 7 6 2 4 7 7 7 7 6 6 6 5 5 3 1
9 9 8 7 5 4 5 6 7 6 6 9 4 4 3 4 3 2 2 1 1 1 1 1 1 1 1 1 2 2 1 1 1 1 1 3 4 2 3 1 4 6 4 3 2 1 1 1 1 1 1 1 0 1 0 1 1 1 2 2 2 2 3 3 2 4 3 1 2 5 5 2 4 8 5 4 5 5 6 6 6 7 8 7 7 8 7 6
9 9 8 7 5 3 4 6 8 9 8 7 4 4 4 3 1 2 1 1 1 1 1 1 0 1 0 1 2 2 1 2 1 1 1 1 3 4 2 0 2 5 4 6 5 1 1 1 1 1 1 1 1 1 1 1 2 3 3 2 1 2 2 1 3 3 2 2 2 2 4 3 2 7 4 3 4 4 4 5 6 7 8 7 7 7 6 6
9 8 8 7 5 3 3 3 5 8 7 4 3 3 2 1 2 2 2 1 1 0 1 1 1 1 1 2 1 1 2 2 2 2 1 1 3 3 2 0 1 3 3 4 4 1 1 1 1 1 1 1 1 1 0 2 1 2 2 2 2 2 2 2 2 0 1 3 2 0 3 1 1 6 5 5 6 5 5 5 6 8 8 7 6 6 5 4
10 8 8 8 7 6 5 4 4 7 5 3 2 1 0 1 0 2 3 2 1 1 1 0 1 1 2 2 2 1 2 1 2 2 1 1 1 1 1 1 2 2 3 2 1 1 0 0 0 1 0 1 0 0 1 2 0 0 2 3 3 3 3 2 3 1 0 4 3 2 2 1 4 8 9 8 6 5 5 5 6 5 5 6 6 6 6 5
10 9 9 9 10 9 9 9 8 8 3 3 2 0 1 2 3 3 3 0 1 1 1 1 1 1 1 2 1 0 1 0 1 1 0 1 1 1 1 2 4 2 1 1 1 2 2 2 1 1 0 1 0 1 0 1 0 0 1 2 3 2 2 2 4 2 1 4 3 3 0 2 4 6 7 4 2 4 6 6 6 5 4 3 4 4 5 5
11 10 10 10 11 12 11 10 8 6 3 3 1 1 2 3 3 1 3 2 1 1 1 1 1 2 2 2 1 0 1 1 2 1 0 1 1 1 2 2 3 3 2 1 0 1 2 3 1 1 0 1 0 1 1 1 0 1 2 3 4 3 2 2 2 1 3 5 4 1 0 2 3 5 4 2 3 5 6 5 6 6 3 1 3 4 6 6
11 10 10 10 12 13 12 10 7 4 5 2 1 3 4 5 2 1 3 3 1 2 1 1 2 3 1 0 1 1 2 0 2 2 1 1 2 3 2 3 4 3 3 2 1 2 2 4 1 1 2 1 1 1 0 0 1 1 1 4 2 3 3 2 1 2 1 3 4 2 2 4 4 7 5 3 6 5 5 5 6 6 4 1 1 4 6 6
9 8 8 10 12 13 11 9 7 6 5 2 2 4 5 4 2 1 3 4 4 5 4 1 1 3 2 2 1 2 0 1 0 1 1 2 2 3 2 2 3 4 4 3 2 1 1 3 1 1 1 2 1 1 1 1 0 1 1 1 2 2 4 3 0 1 2 1 3 3 4 5 3 6 5 3 6 5 4 5 6 4 3 2 3 5 6 6
6 5 7 9 13 14 11 9 8 9 4 1 4 5 3 2 1 1 1 2 3 5 6 3 2 3 4 3 2 2 2 1 1 1 1 2 2 3 4 1 1 1 2 2 1 1 2 2 2 1 1 1 0 1 2 1 1 2 1 2 2 1 3 2 1 2 1 1 3 2 5 6 4 3 4 2 4 5 6 6 4 2 3 4 5 6 6 6
3 5 7 10 14 14 10 9 9 8 3 2 5 5 2 2 2 1 1 1 2 3 4 3 2 1 3 4 3 4 4 2 3 3 1 2 2 2 5 1 2 2 2 2 1 1 2 1 3 2 1 1 1 1 2 3 1 2 2 2 0 2 1 1 1 1 1 2 3 5 6 5 2 4 2 3 3 5 5 5 5 4 4 5 6 6 7 7
2 3 4 9 15 14 10 9 9 5 2 4 5 5 2 1 1 1 2 2 0 3 2 3 1 1 2 4 2 3 4 4 5 4 2 3 2 1 3 2 1 1 1 2 1 1 2 1 3 3 1 1 1 1 2 1 1 0 1 2 1 1 2 2 1 2 2 1 3 5 6 4 5 5 2 4 4 5 4 4 3 3 3 4 6 6 7 7
4 2 2 7 13 13 10 8 6 3 3 4 4 3 0 2 2 1 2 2 1 2 1 2 2 2 2 1 0 2 3 3 5 5 2 3 2 2 2 1 2 1 2 1 1 1 2 2 2 3 2 1 1 2 3 3 2 1 1 1 1 0 1 1 1 1 3 1 2 2 4 6 6 2 4 5 5 5 3 2 3 4 3 5 6 6 6 6
4 2 2 6 12 14 11 6 3 3 3 2 2 1 1 1 3 2 2 3 2 1 1 1 1 3 3 2 2 2 3 3 4 4 3 3 2 0 1 1 1 2 1 1 0 1 1 2 2 1 1 2 3 1 1 1 2 3 4 4 4 4 3 1 2 2 2 2 2 2 3 7 7 1 5 6 5 4 3 2 4 5 4 5 6 5 6 6
3 3 1 5 14 17 11 4 2 2 3 3 2 1 1 2 2 3 2 2 2 1 1 1 1 2 3 3 2 3 4 3 4 3 3 3 2 0 0 1 3 2 2 2 1 2 1 2 1 2 2 3 2 1 2 1 1 1 1 1 2 3 4 4 3 2 0 0 1 2 1 7 7 0 4 5 4 3 4 4 4 5 4 4 5 5 5 6
3 4 0 5 16 15 7 4 3 2 2 2 1 2 0 1 2 3 2 1 1 1 1 1 0 0 2 1 2 4 4 3 5 4 2 2 1 1 1 2 4 3 1 2 1 1 0 2 1 2 1 0 1 1 2 2 1 1 2 1 1 2 3 4 4 3 1 2 2 3 1 7 6 2 1 3 3 2 4 3 5 6 6 5 5 5 5 6
3 2 2 5 15 11 4 5 5 4 4 0 2 0 1 0 2 2 3 4 2 2 1 1 1 0 1 2 3 3 3 1 4 4 1 1 1 1 1 2 2 1 1 1 1 0 1 1 2 1 3 3 2 2 2 2 0 2 2 2 3 2 5 3 1 2 0 4 7 4 4 8 5 2 1 0 1 4 5 1 3 4 6 5 5 5 5 6
3 2 2 4 10 6 2 3 3 4 5 3 1 3 2 1 1 0 2 4 2 1 2 1 1 0 1 2 2 1 1 1 1 1 1 1 1 1 1 1 1 2 2 2 2 1 1 2 3 4 3 4 2 2 2 1 1 2 1 2 4 5 6 3 1 2 2 5 6 6 7 7 7 6 5 5 6 7 6 4 3 5 5 5 5 5 6 6
3 3 1 3 4 4 2 0 1 3 5 5 2 4 6 4 1 0 1 2 2 2 2 1 1 1 1 2 2 1 0 1 1 0 1 2 1 1 0 1 1 1 1 2 3 1 1 1 3 5 6 6 5 4 3 3 3 3 3 4 5 6 7 5 2 3 5 4 5 8 8 8 13 15 11 9 7 6 7 7 7 6 6 6 5 5 6 6
4 3 3 3 1 3 4 2 3 3 3 7 5 4 8 7 3 1 1 0 1 2 2 1 1 2 3 3 3 2 2 2 2 1 2 2 1 1 1 1 1 2 1 1 2 1 2 2 4 5 7 6 6 6 5 3 3 6 6 6 7 7 7 7 6 6 6 4 7 10 7 8 15 15 11 9 8 8 8 8 7 6 6 6 6 5 6 7
4 1 3 6 3 4 6 6 7 6 6 8 6 4 8 9 6 4 1 1 1 1 2 2 3 6 6 5 4 3 3 2 1 2 2 3 2 1 0 1 0 3 3 1 2 2 2 3 3 3 5 5 4 6 6 5 4 5 6 8 9 9 10 11 12 10 7 6 10 8 6 10 14 14 12 11 9 9 10 8 6 6 7 6 5 5 7 7
4 2 2 3 2 5 9 9 11 12 10 8 6 5 8 10 9 6 3 3 1 4 5 4 6 8 7 6 5 4 5 4 3 5 4 3 4 3 2 1 1 2 3 1 0 1 2 2 2 2 3 7 4 5 6 6 4 5 8 9 9 11 13 14 12 11 10 10 13 12 12 14 15 15 14 12 10 9 9 7 6 6 6 5 5 6 7 7
4 2 1 2 2 4 7 7 9 10 9 7 6 6 7 9 11 7 4 6 5 4 6 8 8 8 8 8 5 5 7 6 3 6 7 5 3 4 4 3 3 2 1 2 1 1 1 2 1 3 2 6 3 3 4 5 5 6 8 8 8 9 11 11 10 8 8 11 15 14 13 15 16 14 12 10 9 8 7 7 7 5 4 5 6 7 7 7
7 2 2 0 3 4 5 5 7 7 8 8 7 5 6 10 12 8 5 7 8 7 10 13 11 7 6 8 8 9 8 5 2 4 7 7 4 4 3 4 7 6 3 4 2 1 2 2 1 3 1 5 1 2 2 2 3 7 10 10 11 10 9 9 9 8 10 12 12 8 8 12 14 9 6 7 7 6 7 7 5 4 4 4 6 7 7 7
12 5 2 3 2 4 5 4 6 7 7 8 8 8 9 9 9 10 6 4 4 7 10 13 11 6 5 9 12 11 5 6 4 2 4 5 4 4 3 4 7 8 7 6 3 2 4 3 2 3 2 4 2 1 1 2 4 7 9 10 14 14 9 7 6 9 13 12 7 7 9 11 8 4 3 4 5 6 7 5 3 5 5 4 5 6 7 7
Wind_Direction
82 90 98 101 90 74 67 66 64 60 57 56 56 59 63 69 70 66 62 54 52 117 159 156 139 125 113 103 359 348 343 48 48 43 46 7 345 346 355 29 64 92 122 153 239 249 227 176 178 226 218 191 40 345 316 342 327 304 335 103 85 89 97 341 50 92 123 130 146 159 178 204 159 167 163 123 213 238 256 240 215 201 209 232 200 139 146 148
77 88 95 98 93 78 66 60 57 54 53 51 50 53 57 60 57 51 45 40 42 85 175 187 219 274 280 291 307 325 312 12 48 48 29 354 350 344 346 49 88 107 116 290 302 308 323 108 217 253 227 129 2 263 186 333 356 23 1 79 59 44 54 4 42 49 110 133 149 157 186 222 153 160 156 181 213 199 231 239 216 220 214 222 208 164 169 172
71 81 89 92 90 81 69 59 52 48 47 47 45 44 47 48 44 39 29 22 23 349 216 233 272 286 288 297 296 307 302 310 44 39 353 349 358 345 333 112 82 56 317 321 328 324 334 344 295 281 223 84 358 342 53 353 351 51 48 67 87 104 77 28 37 26 72 129 146 151 180 224 145 153 149 203 241 216 221 217 203 220 218 213 203 183 179 182
66 71 80 84 85 82 73 63 52 44 41 40 39 36 37 38 33 22 8 357 360 320 259 254 269 293 300 308 301 296 291 284 41 355 340 352 3 2 333 234 342 355 319 333 327 307 308 302 294 295 56 87 60 40 30 359 1 33 26 61 117 141 93 32 39 22 34 123 139 135 153 220 165 163 179 204 244 244 235 219 208 213 210 207 202 192 185 185
62 65 68 73 77 76 69 64 54 44 37 32 29 28 29 31 27 18 8 352 346 326 280 251 279 329 352 352 338 296 262 228 1 341 345 356 3 2 341 274 305 311 312 323 313 293 284 284 287 306 28 54 53 61 18 358 50 59 35 48 53 87 103 70 63 7 348 105 116 128 149 195 135 186 215 220 232 230 217 190 206 218 211 204 198 193 186 188
56 60 60 61 65 68 63 57 50 42 36 27 19 16 18 23 22 21 18 9 347 314 305 224 253 355 6 11 22 32 128 105 351 342 347 354 359 357 1 198 245 306 308 294 286 273 274 287 293 354 46 50 38 55 34 339 136 107 65 43 26 45 96 98 81 352 335 96 119 135 144 65 161 245 218 217 232 231 212 109 106 28 332 243 195 185 183 189
45 52 55 54 51 54 53 50 43 34 30 23 15 10 8 13 18 20 21 20 19 310 298 206 220 307 324 3 48 51 72 63 350 341 347 354 357 354 14 192 254 331 311 300 293 287 319 305 336 41 73 82 58 59 28 34 64 86 100 64 44 60 78 76 83 13 355 46 80 29 341 279 227 252 229 227 234 233 246 259 268 242 294 330 238 183 180 190
31 42 48 49 44 38 37 37 32 24 20 15 12 8 2 6 16 18 17 21 23 358 249 227 244 284 313 311 41 55 62 2 341 340 350 5 17 14 18 227 308 330 309 323 338 358 350 322 17 38 65 58 61 60 354 30 50 54 97 98 79 77 79 85 98 60 11 28 23 330 275 251 239 272 283 252 245 229 236 248 249 229 196 207 259 222 188 188
21 29 38 42 41 34 22 17 18 15 13 7 4 5 358 358 11 17 11 13 15 11 260 255 272 284 317 308 287 58 26 339 340 345 360 17 27 28 27 328 353 339 315 348 2 5 350 360 33 59 87 56 39 50 344 3 50 63 103 110 103 96 102 118 133 108 11 19 69 282 259 252 243 324 275 251 248 237 225 230 230 216 197 193 210 226 212 199
17 16 26 33 35 35 21 5 1 2 2 360 358 359 353 351 5 11 5 7 13 19 32 23 2 313 293 285 301 86 342 339 355 2 12 22 24 29 41 57 55 17 16 54 30 17 12 32 56 86 102 76 47 34 349 27 103 109 107 101 105 117 126 146 173 138 219 232 189 249 265 259 157 88 264 247 243 227 212 217 217 208 203 200 201 211 215 214
18 11 13 19 26 32 24 5 350 350 352 352 353 354 347 347 358 0 3 13 16 32 68 77 68 62 59 56 76 92 343 346 9 14 19 23 24 27 38 53 54 44 68 75 47 32 33 44 53 54 129 108 76 52 31 91 118 123 125 105 107 134 131 177 201 155 227 221 191 245 268 259 165 164 248 242 158 165 190 207 208 209 207 200 207 209 210 214
12 9 3 5 15 19 22 11 348 341 343 344 345 348 345 344 350 351 359 7 7 23 89 78 65 73 67 62 64 48 350 1 15 12 14 28 32 30 38 50 55 60 94 90 52 42 48 38 27 20 72 124 130 81 97 152 130 147 174 109 125 170 148 195 189 140 235 204 187 268 293 255 185 215 246 233 161 144 178 202 201 211 214 207 213 210 211 215
358 4 359 355 0 4 13 13 353 340 338 341 337 339 341 340 342 344 352 350 357 19 112 35 25 91 69 58 30 356 1 20 20 11 21 46 48 38 42 51 60 70 91 98 75 54 58 64 82 70 53 86 132 119 139 177 130 175 228 79 151 200 170 192 156 135 215 202 190 292 325 277 204 225 245 217 159 165 185 207 205 207 209 212 214 212 215 212
347 353 354 348 347 352 359 6 0 342 339 343 335 331 335 338 339 339 350 355 4 47 88 74 69 84 79 84 26 20 23 25 18 15 27 44 55 44 43 50 60 70 78 86 83 70 72 92 98 88 38 57 116 145 128 141 198 181 64 45 192 274 174 178 130 158 205 243 216 73 264 273 274 244 234 178 157 169 195 215 212 209 208 209 206 208 216 209
340 342 348 346 340 342 348 357 2 348 346 352 345 336 330 336 342 348 359 15 60 84 75 50 63 85 79 86 101 30 23 18 5 7 16 25 32 25 25 40 52 62 71 74 74 66 61 84 96 87 62 64 113 159 140 165 215 157 68 343 259 332 213 163 106 191 268 311 220 204 254 269 289 282 181 156 164 177 205 221 212 215 214 210 204 202 211 215
336 336 341 344 340 338 342 347 354 354 350 353 6 6 360 353 343 353 15 28 71 114 55 35 51 93 107 93 85 24 21 15 348 351 2 12 14 3 357 6 30 48 59 53 57 56 47 62 62 78 132 132 197 218 184 175 212 167 203 321 33 330 289 164 303 273 312 332 215 208 260 279 283 311 118 157 182 192 214 225 216 218 219 214 201 194 202 212
334 332 335 342 341 337 338 342 346 354 346 331 14 41 43 32 12 356 10 46 64 94 89 62 55 83 96 31 49 34 5 339 336 348 358 359 358 357 355 348 308 340 357 12 29 28 22 46 15 288 148 22 353 315 344 33 343 11 327 329 74 314 277 231 312 303 203 233 232 218 242 263 265 275 265 224 199 202 219 225 223 220 224 225 199 190 197 202
331 328 333 337 338 338 336 340 341 345 341 304 317 356 24 21 14 11 8 77 73 89 96 40 27 80 56 338 288 349 333 318 337 360 356 346 348 351 351 349 303 309 310 339 356 1 2 10 280 34 41 26 17 5 59 72 326 350 351 341 349 313 275 281 338 249 240 214 240 251 255 265 271 272 265 244 205 206 224 223 226 225 223 227 206 197 200 201
326 326 331 335 335 335 335 341 341 340 334 300 300 311 305 302 334 27 35 45 49 198 163 356 357 161 328 36 337 322 318 319 345 4 354 346 346 337 326 315 283 296 313 328 6 9 357 12 35 38 26 15 17 20 45 27 310 319 322 318 313 304 296 346 113 164 259 259 253 253 256 270 282 282 278 267 215 202 226 227 223 229 224 227 217 210 208 207
321 324 327 332 331 327 332 341 341 340 337 327 329 322 305 301 276 24 33 42 56 318 228 341 346 235 14 34 336 326 312 311 346 6 358 349 338 337 332 271 267 9 39 4 337 344 52 54 48 46 21 355 359 360 335 296 282 296 312 300 288 297 302 64 113 167 155 305 270 260 269 278 285 285 285 277 224 192 217 228 226 229 224 227 226 227 221 216
313 319 323 329 326 317 323 338 344 342 340 342 344 337 332 355 316 211 37 41 81 358 333 8 4 328 34 3 341 347 339 282 306 1 2 351 330 352 347 286 22 33 37 223 266 311 64 71 62 62 16 318 311 315 315 305 299 310 314 305 308 317 306 357 89 189 139 73 279 292 302 288 284 285 283 274 205 188 207 214 225 225 221 224 221 232 232 220
306 311 319 322 316 313 314 330 348 340 336 346 336 329 352 14 181 154 124 96 84 13 332 342 359 56 40 1 353 360 22 278 309 359 2 357 2 47 319 20 64 83 13 356 285 29 51 76 91 44 6 302 277 266 291 294 299 313 302 303 319 340 323 335 97 166 158 141 282 312 310 291 288 281 278 273 144 185 214 209 232 226 226 227 209 218 223 207
300 304 314 315 312 313 307 319 346 343 338 346 331 315 321 123 137 137 116 92 67 341 348 9 3 3 359 346 354 357 52 51 295 346 358 356 17 64 348 41 68 102 26 7 58 116 82 99 57 13 346 319 277 239 290 278 225 311 342 342 317 1 11 295 307 309 276 255 293 300 292 285 289 281 276 266 131 268 299 275 297 282 254 247 227 217 208 196
296 299 306 311 312 310 306 315 333 341 345 341 332 315 242 150 130 125 60 60 98 303 37 39 319 343 348 348 356 1 79 72 232 315 350 1 15 337 20 66 61 68 20 9 76 105 113 78 13 323 286 310 299 352 11 346 38 34 25 41 303 347 354 269 306 312 295 302 299 292 299 288 301 336 321 246 253 296 203 206 265 261 255 266 298 310 254 219
295 294 299 308 308 304 308 319 327 329 348 355 335 315 179 160 132 18 2 353 259 232 3 286 220 12 347 356 360 20 126 69 58 301 343 10 18 332 82 86 64 66 325 1 84 88 80 30 346 313 268 292 309 23 42 18 20 10 20 38 346 330 308 291 312 317 321 333 294 334 7 311 327 347 308 226 323 309 163 178 235 223 214 222 258 267 250 248
293 289 296 302 301 306 307 320 338 315 318 333 307 249 179 177 340 349 64 13 291 200 122 286 164 35 336 358 351 49 134 335 287 308 350 15 4 137 102 357 55 97 291 68 97 93 88 153 324 330 297 295 331 41 349 16 46 331 268 323 330 308 294 304 320 325 337 302 300 22 56 279 320 324 284 29 353 323 75 26 250 176 182 200 218 233 221 223
291 286 291 295 295 312 312 336 342 321 303 320 281 195 206 240 323 350 71 26 294 190 127 354 239 358 9 349 332 339 129 287 292 347 352 9 350 165 105 359 55 88 42 95 65 349 96 147 223 265 277 280 227 189 289 356 81 244 244 292 318 308 300 315 327 292 277 302 317 4 73 229 303 294 270 269 6 2 22 5 359 101 142 181 209 236 212 200
290 283 284 287 288 293 283 310 333 322 332 342 307 196 225 288 301 328 82 121 280 138 91 109 173 40 26 302 337 75 159 288 32 335 324 11 7 31 94 39 112 99 48 55 255 289 340 134 183 207 211 250 232 171 298 356 118 218 254 269 301 325 309 306 314 271 276 1 338 337 34 84 268 283 294 335 36 9 357 357 2 29 52 49 40 25 11 29
287 281 279 282 284 286 273 284 305 298 316 335 306 217 264 310 309 9 87 203 243 59 26 78 113 32 25 274 25 59 194 17 45 263 301 20 18 48 93 88 116 106 53 43 103 238 353 70 70 32 151 211 127 123 109 312 192 250 303 275 250 275 272 264 271 276 302 12 283 318 359 33 283 289 310 18 30 352 337 355 7 25 42 44 44 38 21 16
283 278 278 281 286 293 276 272 276 279 302 319 272 246 304 327 357 78 122 236 116 75 311 54 212 300 116 124 35 1 359 46 343 303 348 40 25 40 87 216 109 106 66 52 70 81 78 76 321 17 84 22 26 104 111 333 304 326 323 291 225 220 254 242 238 256 347 315 253 306 349 48 330 283 286 20 359 1 6 350 354 16 25 28 35 33 21 13
281 275 271 268 265 273 276 267 276 283 292 287 244 266 318 9 65 134 195 232 84 173 274 33 335 290 187 154 73 359 43 42 326 346 22 42 29 37 70 356 53 72 41 40 51 56 158 113 321 57 62 350 356 196 60 9 348 16 333 321 28 6 342 9 298 286 48 293 246 73 339 47 205 265 283 321 336 34 47 7 3 12 11 11 6 356 358 351
279 274 264 257 249 252 256 257 312 317 290 228 214 266 354 102 143 214 236 334 359 201 162 56 305 251 195 129 76 36 91 45 339 26 56 53 74 151 131 171 165 48 330 295 16 333 268 305 257 99 64 297 38 243 339 334 237 56 340 12 43 7 357 3 311 312 169 274 230 145 345 280 224 249 264 292 335 39 58 54 46 33 20 10 355 338 333 324
276 272 262 255 248 250 253 256 291 312 274 189 193 226 104 189 218 212 210 268 295 246 52 45 41 65 122 122 104 333 106 268 314 53 28 26 70 256 305 169 149 109 245 207 43 346 325 313 263 132 99 274 195 134 141 288 9 16 355 60 88 50 18 309 292 317 289 284 254 172 123 290 281 264 246 265 7 69 76 80 84 78 63 6 331 333 337 340
271 268 261 257 251 252 254 257 279 290 227 180 186 147 143 212 232 189 182 193 259 259 28 50 110 71 58 112 193 209 124 277 317 54 357 29 54 275 270 205 162 113 110 101 69 192 236 279 269 120 248 284 341 119 170 208 12 229 175 113 125 137 132 222 259 292 275 297 302 301 153 204 264 272 234 140 92 98 95 107 115 109 114 253 297 349 10 5
266 266 266 263 255 252 251 256 266 241 202 201 175 167 188 211 218 178 183 172 176 181 149 290 153 115 32 64 221 239 153 219 340 46 120 145 177 226 212 196 206 171 125 149 229 154 194 255 275 226 248 300 9 314 318 84 348 276 112 87 131 166 147 161 189 212 220 328 311 280 245 211 227 274 276 121 117 118 123 133 115 114 136 145 354 12 17 360
267 273 274 262 254 250 248 252 241 205 202 210 177 202 217 213 190 172 165 143 152 154 143 190 160 152 212 213 238 270 120 124 309 74 173 194 222 243 216 160 200 186 144 154 205 124 177 272 297 206 275 10 11 312 350 128 226 319 77 107 224 165 120 120 319 301 100 54 281 261 280 293 321 308 306 99 134 149 139 128 117 128 135 81 20 6 6 348
259 273 273 258 253 247 245 247 219 198 210 216 198 219 225 217 260 321 106 117 143 146 140 161 195 182 194 195 204 190 151 202 199 143 194 231 253 224 191 144 9 165 130 128 210 176 144 263 275 275 323 304 184 16 342 295 124 99 143 230 241 96 95 108 56 333 23 252 271 268 273 295 351 315 305 43 129 142 115 107 107 93 42 17 352 353 352 338
253 275 269 256 249 244 242 234 206 192 209 213 221 240 207 195 291 2 60 75 136 144 158 183 196 181 179 186 186 153 155 184 171 164 186 201 243 190 154 158 7 39 40 34 332 253 104 241 280 323 339 231 141 45 323 318 91 153 196 241 184 99 116 119 114 269 292 270 278 298 291 280 233 227 263 40 101 114 85 72 60 30 7 354 344 345 344 340
240 270 265 243 235 235 231 215 196 188 219 203 215 237 199 140 325 24 8 323 92 127 179 207 170 86 169 172 152 140 171 179 160 172 189 177 221 4 111 166 27 29 349 52 116 256 85 130 270 293 269 230 38 182 220 288 333 268 329 347 36 145 168 165 166 172 164 234 276 314 320 291 231 210 125 66 82 97 73 44 28 349 335 351 350 343 338 339
222 233 258 222 215 212 202 190 184 196 220 201 198 223 243 86 119 78 17 340 351 116 211 247 142 151 185 191 172 163 185 185 161 177 205 181 205 350 37 98 111 153 288 49 112 313 62 124 238 297 317 288 219 209 190 169 149 124 114 159 186 175 129 155 263 170 137 174 255 290 299 277 250 204 98 84 93 107 96 23 307 283 323 356 348 337 333 333
219 215 259 215 191 178 165 163 190 202 206 214 198 196 263 142 137 117 50 19 356 5 327 341 82 152 163 172 248 193 165 186 190 195 213 194 193 286 2 17 87 165 166 100 226 284 104 150 187 201 287 237 228 272 37 130 150 153 167 178 177 158 119 93 285 288 111 142 201 205 260 269 262 214 95 102 114 136 163 206 263 282 330 346 333 331 335 332
219 191 254 204 178 163 153 169 211 179 197 226 206 104 194 189 129 129 127 45 355 333 352 351 51 145 165 172 204 171 148 175 200 208 223 200 168 99 195 320 314 291 122 126 214 234 153 122 168 214 209 205 224 313 8 321 280 153 171 181 166 166 149 143 197 242 240 127 171 114 246 268 268 265 98 120 142 177 200 195 239 283 302 315 322 331 336 329
216 191 72 177 176 164 157 200 191 169 222 250 31 39 5 167 113 125 153 129 138 156 9 300 266 153 198 161 143 173 172 180 187 189 222 199 146 348 279 316 317 305 91 118 178 225 127 118 184 261 288 56 249 287 320 332 9 331 273 238 167 175 151 146 171 180 144 189 159 100 254 264 274 311 75 123 140 272 283 215 215 268 293 309 323 334 333 323
226 206 49 162 178 176 188 201 185 194 214 38 43 357 329 291 133 132 167 171 178 183 176 220 257 319 192 124 118 176 194 178 187 194 219 171 177 261 272 355 2 22 79 114 163 175 248 176 159 255 313 323 336 338 322 336 16 235 251 198 191 155 98 86 155 112 32 218 179 153 240 255 275 308 311 357 323 313 317 246 202 282 315 320 325 330 322 313
240 221 48 152 179 190 231 195 175 197 193 166 175 184 179 250 217 116 164 155 152 169 152 207 272 72 87 90 90 94 64 91 175 194 68 88 147 210 176 33 35 62 38 332 307 323 229 197 151 153 205 239 248 263 260 231 196 224 200 167 202 181 141 137 137 119 225 230 181 183 236 263 291 292 282 298 306 316 333 348 341 331 326 323 328 322 307 302
237 218 148 123 169 210 260 165 163 209 183 169 202 193 179 192 199 280 251 140 120 102 105 66 318 40 87 116 123 146 184 87 78 64 167 142 149 275 203 120 134 122 26 317 291 319 73 269 208 183 200 208 195 211 214 148 141 187 187 186 204 198 181 175 152 174 202 210 209 225 241 282 290 283 285 295 299 308 327 337 334 326 320 321 316 297 293 296
236 229 173 149 145 209 232 244 226 248 183 171 185 187 184 191 168 134 298 288 125 115 118 136 153 177 186 159 149 182 181 106 75 208 204 151 114 322 266 202 153 164 155 312 280 118 92 275 245 213 228 222 188 195 195 157 180 195 188 198 202 198 185 180 202 214 182 174 245 241 224 254 271 274 281 290 299 315 321 319 314 308 305 302 293 291 302 302
224 259 177 182 187 185 198 206 202 218 209 184 181 171 182 191 178 172 225 20 91 171 159 181 214 214 206 175 163 171 155 141 206 211 182 144 140 129 227 295 298 144 130 4 332 110 126 248 247 209 255 261 195 184 173 164 214 214 198 204 197 188 188 193 213 221 188 200 248 250 223 242 263 273 279 287 300 306 301 295 293 293 291 292 298 308 306 298
207 291 280 215 215 188 189 186 186 205 211 192 189 187 184 193 194 186 145 103 241 223 180 195 220 211 210 200 180 167 164 171 218 216 188 150 156 159 141 251 228 142 112 73 317 162 155 230 224 152 280 285 240 186 173 177 222 242 227 219 200 193 199 203 216 223 216 235 254 262 267 268 269 271 276 287 293 287 288 293 291 288 293 312 323 316 306 302
189 210 266 319 297 202 188 182 180 201 210 198 208 202 183 195 196 187 157 159 185 193 177 206 213 187 194 209 201 205 203 190 195 199 177 147 162 194 190 180 158 134 134 164 181 286 214 214 175 106 336 292 256 153 171 190 216 248 249 237 214 208 212 219 229 225 222 247 256 262 276 276 269 268 272 278 276 273 279 280 273 278 308 337 330 314 308 308
232 251 148 240 280 193 181 190 175 187 208 207 207 192 193 210 196 180 200 205 193 174 177 199 205 173 175 201 214 232 223 181 151 183 169 158 171 191 188 164 141 139 172 186 162 149 179 204 66 86 336 284 281 117 218 231 262 266 264 251 225 212 208 214 222 207 200 224 245 258 264 260 262 266 259 252 251 255 266 268 272 292 315 328 315 303 303 306
233 277 184 172 263 190 178 197 180 188 208 203 194 188 199 215 192 176 206 240 210 193 187 190 186 159 161 199 216 225 194 131 125 123 123 123 104 86 92 116 129 140 162 167 147 155 172 175 139 132 189 276 284 225 227 349 323 274 253 231 213 208 213 224 233 220 206 203 210 223 230 240 251 248 236 263 271 267 266 262 269 289 292 296 294 290 293 301
Height
836 836 836 836 836 836 835 835 835 834 834 833 832 832 832 832 832 832 832 831 831 831 831 831 830 830 829 828 828 828 828 827 825 823 827 832 833 830 829 829 829 829 829 829 828 827 826 825 825 823 823 822 823 825 825 826 824 827 829 835 847 850 854 853 849 852 853 860 865 865 865 865 867 868 867 867 869 869 868 867 866 866 865 866 867 867 868 869
838 837 837 837 837 837 836 836 836 835 835 834 834 833 833 833 833 832 832 832 832 831 831 831 830 830 829 829 828 827 828 828 826 826 832 835 833 831 831 830 830 830 829 829 827 826 824 824 823 822 822 824 826 825 827 827 826 832 833 840 854 856 856 853 850 851 851 858 863 863 864 862 863 865 866 868 868 867 869 866 864 864 863 864 865 866 867 868
839 839 838 838 838 838 838 837 836 836 835 835 835 834 834 833 833 833 832 832 832 831 831 831 831 830 830 829 828 828 828 828 828 831 834 834 833 831 831 830 830 829 829 828 827 826 825 824 823 822 822 826 828 826 828 830 830 834 837 848 860 856 857 855 852 852 850 855 860 862 863 862 862 862 865 867 865 864 864 862 861 862 860 860 862 863 864 865
840 840 839 839 839 839 839 838 838 837 836 836 836 835 835 834 834 833 833 832 831 831 831 831 831 830 830 828 827 827 826 829 834 836 834 832 831 830 829 829 829 829 828 828 827 826 826 824 823 821 823 829 829 828 833 835 835 838 843 852 856 852 857 859 856 856 852 853 858 861 864 863 861 861 863 865 865 863 857 854 854 855 855 856 857 859 861 863
841 841 841 840 840 840 840 839 839 838 838 837 837 836 836 835 834 834 833 832 831 831 831 830 831 830 829 827 827 826 826 835 839 835 833 831 830 829 829 829 829 829 828 828 828 827 826 824 823 822 825 831 832 833 839 837 837 846 852 853 852 850 858 861 858 859 856 854 858 861 864 863 860 861 861 863 864 857 849 847 847 848 849 850 851 854 857 859
841 841 841 841 841 841 840 840 840 839 839 838 838 837 837 836 835 834 833 832 831 831 831 831 830 829 829 828 827 825 829 841 841 834 834 831 830 830 829 829 829 829 829 829 828 827 826 824 824 827 830 835 837 839 841 838 837 849 857 855 853 853 858 861 860 861 858 856 860 862 862 860 862 862 859 859 857 849 844 844 844 846 846 846 846 849 852 855
843 842 842 842 842 842 841 841 841 840 840 839 839 838 837 836 835 835 833 832 832 831 831 831 830 830 829 829 829 827 831 841 840 836 836 832 831 830 829 830 829 830 829 829 828 826 826 825 827 830 834 839 841 841 842 839 838 848 858 858 858 858 860 862 862 863 860 859 861 862 862 862 863 861 855 852 848 845 844 842 843 845 845 846 845 846 848 851
844 843 843 843 842 843 842 842 842 841 841 840 839 839 838 837 836 835 834 833 832 831 831 831 831 830 829 829 830 832 837 841 840 838 836 833 832 830 830 830 830 831 829 829 828 826 827 828 829 831 838 842 841 843 844 842 845 851 858 859 860 861 862 863 863 863 863 862 863 863 863 862 859 858 854 847 841 841 842 841 843 843 844 846 845 845 846 848
845 844 844 843 843 843 843 843 842 842 841 840 840 839 838 838 837 836 835 834 832 832 831 831 831 830 830 830 829 836 843 843 841 839 836 834 832 831 831 830 830 830 829 829 827 827 829 830 831 832 838 842 841 845 845 846 851 854 858 859 861 863 863 864 863 864 864 863 863 864 864 860 856 857 851 840 837 838 838 840 840 842 843 844 845 845 845 846
846 845 844 844 844 843 843 843 843 842 842 841 840 839 839 838 837 836 835 834 833 832 831 831 832 830 831 829 831 842 846 842 841 840 837 836 834 833 831 830 830 829 829 829 828 829 830 831 831 830 836 842 845 848 848 849 854 855 857 860 862 863 863 863 863 864 864 863 863 864 863 857 855 859 849 832 831 833 835 838 838 839 841 841 843 843 844 845
847 846 845 845 844 844 843 843 843 842 842 841 840 839 839 838 838 837 836 835 835 834 833 832 832 831 830 829 835 845 845 842 842 840 838 837 835 833 831 830 830 829 830 830 831 830 830 831 830 832 836 841 847 852 852 852 853 855 857 860 863 863 863 864 863 863 863 862 861 862 862 857 858 859 843 829 829 830 832 835 835 837 838 839 841 841 842 842
847 847 846 846 845 844 843 843 843 843 842 841 840 840 839 838 838 837 836 836 835 834 834 833 833 833 831 833 840 846 844 843 842 840 840 838 836 835 832 832 831 830 831 831 832 832 832 832 831 835 838 841 850 854 854 852 852 855 855 858 864 863 863 864 861 862 863 861 860 861 857 850 854 849 830 826 830 830 832 833 834 835 835 837 838 839 839 839
848 847 847 846 845 844 843 843 843 843 842 841 841 840 839 838 838 837 836 835 835 834 834 833 833 832 833 839 845 845 844 844 842 841 841 838 838 837 835 834 833 832 832 831 832 832 833 833 832 836 838 842 852 853 851 851 853 856 852 854 861 861 862 862 860 862 862 861 859 861 855 840 839 834 822 825 829 830 833 832 833 833 834 835 835 836 836 836
848 848 847 846 846 845 844 843 843 843 842 841 841 840 839 838 838 837 836 835 834 834 834 834 834 832 835 844 847 845 845 844 843 842 841 839 838 838 837 836 835 834 834 833 834 834 834 834 833 837 840 843 849 850 851 854 854 853 852 852 854 856 861 861 860 862 863 861 857 862 862 844 831 825 821 824 826 829 832 831 831 831 831 832 832 833 833 833
849 848 847 846 846 845 844 843 843 843 842 842 841 840 840 838 838 837 836 835 834 835 834 834 834 833 839 847 846 845 845 844 844 843 842 841 840 839 838 837 837 836 835 835 834 835 835 834 835 841 845 846 848 850 851 853 851 850 854 856 850 851 860 862 861 861 863 862 858 862 863 847 831 823 820 824 826 828 829 829 829 828 828 828 828 829 830 830
848 848 847 846 846 845 844 843 843 842 842 842 841 841 840 838 838 837 836 835 834 834 834 834 834 834 842 848 846 845 846 845 845 844 843 842 841 840 839 838 838 837 836 836 835 836 835 835 839 844 847 848 847 848 850 853 852 849 853 856 852 852 856 861 863 862 863 863 860 861 860 848 834 824 822 825 825 827 828 827 825 825 825 824 824 825 827 828
848 848 848 847 846 845 845 844 843 842 842 842 842 841 840 839 838 837 836 835 835 835 834 835 834 835 843 847 846 846 847 846 845 844 843 842 841 841 839 838 838 837 837 836 836 837 837 839 844 844 844 848 848 847 853 863 862 854 852 853 852 851 852 856 861 863 863 865 861 860 860 850 835 827 826 825 824 826 826 824 823 822 821 820 821 822 823 825
849 848 848 847 846 845 845 844 843 843 842 842 842 841 840 840 839 837 837 835 835 835 835 836 835 840 849 848 847 849 847 846 846 844 843 842 841 841 840 839 838 838 838 839 839 839 839 842 845 845 849 857 861 859 862 870 872 867 863 860 857 854 852 851 858 864 864 864 862 861 859 847 833 827 824 820 821 823 822 821 820 819 819 818 818 819 820 821
849 848 848 848 847 846 845 844 844 843 842 842 842 841 840 839 839 838 837 836 839 841 842 844 844 848 852 849 848 849 847 847 846 844 844 842 842 840 840 840 839 839 840 843 843 842 844 847 849 855 866 874 878 877 875 876 878 873 867 866 864 859 855 853 860 866 865 863 861 859 855 843 831 825 819 816 815 818 818 817 818 817 816 816 816 817 817 818
849 848 848 847 847 846 845 844 844 843 842 842 842 841 841 842 843 842 841 843 848 852 852 852 852 851 850 850 850 848 847 847 846 846 845 843 842 841 841 840 840 841 845 850 850 847 850 858 868 876 882 884 883 883 882 879 876 871 867 865 862 860 857 854 861 866 864 863 857 851 849 841 831 823 816 812 809 813 817 816 816 815 814 814 814 814 814 815
849 849 848 848 847 846 846 845 844 844 843 843 843 843 844 846 847 847 848 852 855 855 854 854 853 853 852 852 851 849 849 847 847 846 845 844 842 842 841 841 843 847 853 857 853 851 852 862 879 886 886 887 884 882 881 877 873 870 869 866 862 863 862 855 860 865 864 865 859 850 847 840 830 822 814 808 807 810 812 813 813 812 812 812 812 813 813 813
849 849 848 848 847 847 847 845 845 844 844 844 843 844 844 845 846 846 847 852 855 854 854 854 853 853 853 853 852 851 851 850 848 846 846 844 842 844 844 844 849 853 857 857 854 856 861 871 884 887 887 887 883 880 879 877 874 870 867 867 867 867 865 859 861 863 864 867 862 853 851 842 828 818 811 806 806 807 806 807 809 809 810 811 810 812 812 813
850 848 848 848 847 848 847 846 845 844 844 844 844 844 844 844 845 844 845 850 855 854 854 854 854 854 853 853 853 852 851 853 852 849 848 846 845 848 848 849 853 855 859 860 857 857 863 877 888 888 888 886 880 877 876 873 873 872 867 869 872 871 872 870 865 862 861 863 861 857 856 844 823 812 809 807 806 806 806 806 808 808 809 810 810 810 810 811
850 849 848 848 848 848 847 847 846 845 845 844 845 845 845 845 845 845 846 850 853 854 855 855 855 855 854 854 853 852 853 856 856 854 852 850 849 850 852 855 856 858 866 867 862 861 871 886 892 889 888 886 880 876 876 873 869 873 874 874 876 876 880 879 872 867 861 859 860 858 851 834 818 812 810 808 807 806 807 808 808 809 809 810 810 810 810 810
850 849 848 848 848 847 847 847 845 846 845 844 845 845 845 846 845 845 847 853 856 856 856 856 855 855 855 854 854 854 854 856 858 857 855 854 853 852 855 859 857 861 870 870 866 868 880 892 892 888 886 884 881 878 881 879 871 874 881 883 883 883 885 883 879 875 867 862 859 856 851 833 819 817 813 808 807 807 806 807 807 807 809 811 811 811 811 811
850 850 849 848 848 847 848 847 846 846 845 845 845 845 846 846 847 846 848 858 862 857 857 857 856 856 855 855 855 854 854 856 858 858 857 857 856 855 856 859 861 864 870 872 872 876 884 892 892 888 886 884 882 880 885 886 876 874 884 890 889 887 887 884 883 882 874 865 857 854 858 850 832 822 814 809 807 807 808 807 806 807 808 809 809 809 810 810
850 850 849 849 848 848 848 847 847 846 845 846 845 846 847 846 847 846 852 870 867 853 855 858 857 857 855 856 856 855 856 857 858 858 858 857 857 856 855 859 863 866 874 873 869 878 888 890 890 889 886 883 880 879 886 889 878 875 888 895 890 887 887 885 886 886 877 868 861 856 861 865 852 827 813 810 810 810 810 809 807 807 807 807 807 808 807 808
850 850 849 849 849 848 849 848 848 846 846 846 845 846 846 846 848 846 859 880 868 851 855 857 856 857 856 857 856 856 859 859 857 857 858 857 857 855 855 862 864 867 876 869 861 878 891 887 888 890 884 881 881 884 892 892 880 882 895 895 890 891 890 889 889 886 877 870 869 866 863 868 859 830 813 812 814 816 815 811 810 808 808 809 809 809 809 808
849 849 849 849 849 849 849 848 848 847 846 846 845 847 846 847 848 849 867 877 860 851 858 857 857 857 856 857 857 858 860 859 858 857 858 857 856 856 857 865 868 870 876 871 867 884 894 891 893 891 884 884 889 893 897 893 885 891 898 894 893 894 890 891 891 885 878 869 869 873 868 867 859 834 820 820 819 821 818 812 811 811 811 812 812 812 812 811
849 848 849 849 849 849 849 848 848 847 847 846 846 846 846 847 851 865 882 873 853 855 858 856 859 858 857 859 860 860 860 860 860 858 858 858 857 859 861 865 866 868 875 877 882 892 895 896 897 895 893 893 896 897 898 898 895 895 895 890 890 893 891 888 886 884 877 865 868 878 871 870 866 840 822 823 822 819 817 815 814 813 815 815 815 814 813 813
848 848 849 849 849 849 848 848 847 847 847 846 846 846 847 851 858 875 882 862 850 858 858 858 861 859 858 860 860 861 861 862 862 860 859 859 860 861 862 864 863 866 871 872 883 894 894 893 895 897 900 899 898 897 898 902 901 896 892 885 879 879 881 880 879 881 873 861 869 879 871 873 874 845 821 819 818 815 816 818 818 818 819 818 817 816 814 814
848 848 848 848 849 849 848 848 847 847 847 846 847 847 851 863 869 872 868 854 853 859 858 861 863 860 859 859 861 864 864 863 863 863 862 862 862 861 863 864 862 866 868 866 875 884 887 892 897 898 901 902 896 890 891 897 898 893 887 881 875 871 874 877 874 871 867 863 871 879 874 872 867 843 824 820 816 815 816 817 819 820 820 819 818 817 815 814
848 848 848 848 848 848 848 848 847 848 847 847 848 847 856 873 873 863 857 854 858 862 860 862 863 861 860 859 864 867 866 865 865 865 866 865 863 863 867 867 865 865 865 866 870 871 878 890 896 895 895 901 897 883 879 883 887 886 881 877 876 877 884 887 877 869 869 868 870 879 876 867 856 835 821 819 816 814 815 816 819 819 820 820 818 817 815 814
848 847 847 847 848 848 847 848 848 848 848 847 849 853 865 874 866 855 854 857 862 865 864 864 863 862 863 864 867 868 865 866 869 867 866 866 865 864 865 867 868 864 863 867 865 865 870 875 886 893 891 897 900 890 887 887 885 883 882 880 877 878 885 887 882 878 878 874 871 877 873 859 849 829 813 814 813 813 815 816 817 818 818 819 817 816 815 813
847 847 847 847 847 847 847 848 848 848 848 848 851 861 870 868 855 848 850 857 863 864 864 865 864 863 865 866 869 869 866 866 870 868 865 865 864 863 859 861 867 863 862 865 861 865 869 867 887 902 896 898 899 896 899 894 883 881 883 882 878 879 880 883 893 891 888 888 877 869 860 844 832 818 808 812 812 812 816 816 816 817 817 817 817 816 815 814
847 847 847 846 846 846 847 847 847 848 848 850 857 864 862 854 847 843 843 849 856 860 863 864 863 863 865 865 866 869 868 866 868 868 866 865 863 861 857 859 865 861 860 862 857 863 868 872 896 905 897 902 901 898 903 894 883 881 881 881 884 889 884 881 896 900 895 895 876 858 852 840 830 821 811 811 813 813 816 816 816 816 816 816 816 816 815 814
847 847 846 846 845 845 847 847 847 849 848 851 859 861 852 845 847 847 845 847 849 853 857 857 857 859 862 863 864 867 867 865 867 866 865 865 860 857 856 860 867 865 864 864 856 858 864 873 896 901 893 900 903 901 903 900 894 885 880 886 889 891 887 879 888 894 890 888 871 855 852 847 846 838 818 812 816 815 815 815 815 815 815 816 816 816 815 814
847 847 845 844 844 845 846 847 847 848 849 854 858 856 849 846 850 850 848 848 847 849 853 851 851 854 857 858 861 867 867 864 866 866 864 864 858 853 854 859 868 872 872 871 862 858 861 867 889 902 895 898 905 900 894 897 902 892 887 893 889 883 883 882 885 887 886 886 874 859 852 849 849 840 822 817 818 816 815 816 816 816 816 816 816 815 814 813
847 847 845 841 842 844 845 846 848 847 851 857 858 853 848 848 852 854 853 851 846 848 851 849 849 854 855 855 859 865 866 862 865 864 860 861 858 854 857 859 867 875 875 872 865 860 862 864 878 896 899 897 900 892 881 886 898 898 893 894 890 883 880 880 883 882 883 887 881 870 861 849 837 826 819 818 816 816 817 817 817 817 816 816 815 814 814 813
845 847 843 839 840 842 844 846 848 849 853 854 852 851 849 848 853 856 857 854 849 848 849 846 848 852 854 857 859 861 864 862 862 860 855 858 857 856 863 863 865 873 875 872 866 861 864 866 871 891 902 893 886 885 879 877 884 889 888 889 889 885 880 880 881 878 878 883 883 880 873 849 825 815 814 815 815 817 817 816 817 816 815 815 815 814 814 813
844 846 842 838 840 841 843 848 849 850 852 850 847 848 848 848 852 856 858 858 855 852 851 849 849 849 852 857 856 857 863 862 861 857 853 856 854 853 868 876 871 871 871 869 866 863 865 867 869 882 889 878 877 892 897 890 886 883 879 878 879 879 879 881 882 878 879 881 878 882 879 851 821 812 812 813 816 816 815 815 815 815 815 814 813 813 813 813
843 845 840 837 840 840 842 848 849 847 848 848 848 848 848 848 851 855 857 857 856 854 854 853 850 850 851 853 853 856 860 861 860 858 853 854 853 855 873 887 882 874 869 864 865 867 865 866 868 873 878 882 892 904 907 904 900 891 884 880 877 875 874 876 880 879 881 883 879 883 880 848 817 812 812 812 815 813 813 815 815 815 814 813 812 812 812 812
841 840 838 838 839 840 843 848 849 847 847 849 850 850 850 850 850 853 855 855 855 854 855 853 851 851 850 851 854 854 855 856 856 857 853 850 858 871 883 889 884 875 869 862 863 867 865 864 867 869 874 887 901 905 904 905 900 888 883 884 881 875 872 874 877 876 879 882 879 884 882 848 817 814 814 812 815 814 813 815 815 815 814 812 812 811 811 811
838 836 837 838 840 840 842 844 846 847 847 849 851 852 853 852 850 851 852 853 853 852 852 852 851 851 851 852 854 852 853 854 850 854 856 851 863 884 889 887 884 875 870 868 866 868 865 861 865 871 871 875 881 884 887 893 893 881 877 881 881 877 877 879 878 878 880 877 870 879 877 845 819 816 816 815 815 813 813 814 814 815 814 812 811 810 811 810
838 836 837 837 839 841 841 839 840 843 845 847 849 850 851 851 852 853 850 850 852 851 851 852 852 852 853 854 855 855 858 857 851 854 859 857 869 886 887 886 885 879 878 882 880 873 864 858 861 869 872 870 868 866 867 873 880 879 876 879 880 878 878 876 876 882 883 873 867 869 859 836 821 817 817 817 816 813 813 813 813 814 812 811 811 810 810 809
837 836 837 839 840 841 840 838 838 839 841 845 848 847 847 848 852 855 852 849 851 852 852 853 854 854 854 855 855 855 859 861 859 858 858 859 871 883 885 885 884 882 883 885 884 876 864 859 861 861 862 864 863 863 866 868 870 871 874 877 880 880 878 874 876 879 875 871 868 858 848 841 831 821 819 818 815 815 815 813 814 813 811 811 811 810 809 808
836 831 832 836 838 840 841 839 838 837 836 839 842 841 842 844 848 853 853 851 852 852 852 853 853 852 852 854 854 854 857 861 863 861 857 860 873 882 885 884 882 882 883 882 881 875 865 862 863 860 859 862 861 863 867 868 866 865 868 872 876 880 879 877 876 869 862 867 865 849 844 847 835 821 821 818 815 816 815 814 814 812 811 811 809 809 809 808
834 828 824 825 827 831 835 835 835 836 834 834 834 834 837 841 844 847 851 853 854 852 850 852 852 850 849 849 849 852 858 860 860 860 856 859 869 876 878 880 881 882 881 879 879 874 867 864 864 861 861 861 862 866 867 868 868 867 865 865 870 877 879 875 872 865 857 858 853 841 840 843 831 821 819 816 815 817 814 813 812 810 810 809 808 809 809 808
830 828 823 822 821 823 825 826 828 832 831 831 831 830 833 838 840 841 845 851 853 850 848 847 847 847 848 847 845 848 854 853 851 854 855 857 863 866 865 868 876 882 880 877 877 876 869 864 864 866 864 860 861 867 869 869 869 867 866 864 865 870 872 869 866 864 860 854 846 840 843 839 826 819 817 814 815 814 812 811 810 808 809 808 808 809 808 807
825 825 823 823 822 821 822 822 825 830 831 831 830 827 828 832 835 836 838 840 842 846 848 844 841 843 846 845 844 844 845 842 839 843 849 853 857 859 856 853 863 879 882 874 874 876 870 863 864 867 864 860 862 868 871 874 873 868 866 866 865 867 870 870 867 864 864 859 848 847 852 842 822 815 816 814 812 811 811 809 808 807 807 807 808 809 808 807
821 820 821 824 823 821 821 821 822 827 829 827 827 826 825 827 827 831 833 829 828 835 840 837 836 840 844 845 844 841 838 837 837 839 842 845 846 847 848 847 853 869 878 874 871 873 871 866 865 868 866 860 863 870 872 875 878 873 868 866 866 864 861 860 859 857 856 853 850 853 854 838 817 810 813 811 809 810 809 807 807 806 806 808 809 808 808 807
823 820 819 823 823 819 819 820 821 823 821 817 820 821 821 821 822 826 830 828 825 828 830 830 832 837 842 844 841 836 835 837 840 842 842 844 845 844 846 848 849 857 868 871 869 869 869 865 862 866 865 860 864 872 871 869 867 857 847 845 848 853 853 851 849 847 844 843 846 846 835 819 809 809 810 809 808 809 807 805 805 806 806 807 808 807 807 806